Regional Weather Roundup
Issued by NWS Memphis, TN

Home | Current Version | Previous Version | Text Only | Print | Product List | Glossary On
Versions: 1 2 3 4 5 6 7 8 9 10 11 12 13 14 15 16 17 18 19 20 21 22 23 24 25 26 27 28 29 30 31 32 33 34 35 36 37 38 39 40 41 42 43 44 45 46 47 48 49 50
000
ASUS44 KMEG 280710
RWRMEG
MEMPHIS CWA HOURLY WEATHER ROUNDUP
NATIONAL WEATHER SERVICE MEMPHIS TN
100 AM CST SUN DEC 28 2014

...WEST TENNESSEE...

CITY           SKY/WX    TMP DP  RH WIND       PRES   REMARKS
MEMPHIS INTL   LGT RAIN  46  43  89 N12       30.12S
NWS MEMPHIS      N/A     45 N/A N/A MISG        N/A
JACKSON        LGT RAIN  47  45  93 NW12      30.09S FOG
LEXINGTON      CLOUDY    48  46  93 E7        30.04F
SAVANNAH       CLOUDY    50  50 100 N6        30.06F
DYERSBURG      CLOUDY    41  30  65 N13G21    30.16S
UNION CITY     CLOUDY    39  37  93 N15       30.13S WCI  31
PARIS          CLOUDY    41  39  93 N9        30.09F
HUNTINGDON     CLOUDY    43  42  96 NW8       30.10S


...EASTERN ARKANSAS...

CITY           SKY/WX    TMP DP  RH WIND       PRES   REMARKS
JONESBORO      CLOUDY    41  38  89 N7        30.18S
WEST MEMPHIS   CLOUDY    43  43 100 N12G21    30.13F FOG
BATESVILLE     CLOUDY    37  34  87 NW6       30.20F WCI  33
NEWPORT        CLOUDY    40  37  89 NW12      30.20F WCI  33
WALNUT RIDGE   CLOUDY    39  36  87 N9        30.19F WCI  33
BLYTHEVILLE    CLOUDY    40  38  93 N23       30.17S WCI  30
SEARCY         CLOUDY    40  37  89 N8        30.20F WCI  34
STUTTGART      CLOUDY    41  37  87 N16       30.17R
PINE BLUFF     CLOUDY    41  38  89 N20G26    30.17S
MONTICELLO     LGT RAIN  45  43  93 MISG      30.15R


...NORTH MISSISSIPPI...

CITY           SKY/WX    TMP DP  RH WIND       PRES   REMARKS
TUPELO         CLOUDY    54  52  93 NE6       30.04F
OXFORD         CLOUDY    46  46 100 N8G17     30.10R
OLIVE BRANCH   CLOUDY    45 N/A N/A N10       30.10F
TUNICA         LGT RAIN  45  43  93 NW16      30.13S
CLARKSDALE     CLOUDY    46  46 100 NW13      30.13R
CORINTH        DRIZZLE   52  50  93 VRB5      30.05F
GRENADA        CLOUDY    52  52 100 CALM      30.08R
GREENWOOD      LGT RAIN  50  49  96 N7        30.07S
COLUMBUS       RAIN      54  54 100 E2        30.03F
STARKVILLE     HVY RAIN  54  52  94 CALM      30.03F
GOLDEN TRIANGL CLOUDY    54  52  94 CALM      30.03F


...SOUTHEAST MISSOURI...

CITY           SKY/WX    TMP DP  RH WIND       PRES   REMARKS
WEST PLAINS    CLOUDY    32  27  81 N7        30.19F WCI  26
POPLAR BLUFF   CLOUDY    39  34  82 N8        30.17F WCI  33
CAPE GIRARDEAU CLOUDY    37  33  85 N14       30.18R WCI  28


...NORTHWEST ALABAMA...

CITY           SKY/WX    TMP DP  RH WIND       PRES   REMARKS
MUSCLE SHOALS  LGT RAIN  54  51  90 CALM      30.06R


...MIDDLE TENNESSEE...

CITY           SKY/WX    TMP DP  RH WIND       PRES   REMARKS
NASHVILLE      CLOUDY    50  49  96 CALM      30.08F FOG
CLARKSVILLE    LGT RAIN  46  45  96 CALM      30.08F
COLUMBIA       CLOUDY   N/A N/A N/A CALM      30.06F


...WESTERN KENTUCKY...

CITY           SKY/WX    TMP DP  RH WIND       PRES   REMARKS
PADUCAH        CLOUDY    39  36  89 N12       30.15R WCI  32
FORT CAMPBELL  CLOUDY    45  45 100 NW5       30.08R


...CENTRAL ARKANSAS...

CITY           SKY/WX    TMP DP  RH WIND       PRES   REMARKS
LITTLE ROCK    CLOUDY    40  34  79 NW14      30.21S WCI  32


SKY/WX REPORTED AS FAIR MEANS FEW OR NO CLOUDS BELOW
12 THOUSAND FEET.



USA.gov is the U.S. government's official web portal to all federal, state and local government web resources and services.